GW6548 Weather Reports


time (UTC)temp
C
wind
direction
speed
KPH
gust
KPH
rain 1hr
cm
rain 24hr
cm
rain mn
cm
humidity
%
barometer
mb
20260505180018 13 0.0 0.0 0.00 0.08 0.08 82 1011.1
20260505175123 12 297 0.0 3.2 0.00 0.08 0.08 83 1010.9
20260505174107 12 5 0.0 1.6 0.00 0.08 0.08 86 1011.0
20260505173027 13 325 1.6 1.6 0.00 0.08 0.08 84 1010.9
20260505172051 12 333 1.6 3.2 0.00 0.08 0.08 82 1010.9
20260505171116 13 317 1.6 4.8 0.00 0.08 0.08 84 1010.9
20260505170037 13 278 1.6 9.7 0.00 0.08 0.08 84 1010.8
20260505165100 13 342 0.0 1.6 0.00 0.08 0.08 84 1011.0
20260505164022 13 45 1.6 4.8 0.03 0.08 0.08 81 1011.1
20260505163046 13 16 1.6 4.8 0.08 0.08 0.08 81 1011.1
20260505162110 13 337 1.6 4.8 0.08 0.08 0.08 85 1011.2
20260505161110 12 346 3.2 4.8 0.08 0.08 0.08 84 1011.2
20260505153104 15 334 6.4 17.7 0.00 0.00 0.00 59 1011.1
20260505152105 16 320 8.0 20.9 0.00 0.00 0.00 53 1010.4
20260505151129 16 304 6.4 25.7 0.00 0.00 0.00 53 1010.0
20260505150113 18 104 1.6 11.3 0.00 0.00 0.00 39 1009.5
20260505130127 18 149 8.0 16.1 0.00 0.00 0.00 40 1009.8
20260505124032 18 108 6.4 16.1 0.00 0.00 0.00 39 1009.6
20260505123056 18 116 9.7 20.9 0.00 0.00 0.00 39 1009.7
20260505122017 18 91 8.0 20.9 0.00 0.00 0.00 40 1009.7
20260505121041 18 131 9.7 22.5 0.00 0.00 0.00 39 1009.7
20260505120105 18 126 9.7 24.1 0.00 0.00 0.00 39 1009.8
20260505115025 18 121 8.0 25.7 0.00 0.00 0.00 39 1009.8
20260505114050 18 124 8.0 20.9 0.00 0.00 0.00 39 1009.9
20260505113114 18 127 12.9 22.5 0.00 0.00 0.00 40 1010.0
20260505112035 18 134 11.3 24.1 0.00 0.00 0.00 40 1010.0
20260505111059 19 151 8.0 20.9 0.00 0.00 0.00 39 1010.1
20260505102053 17 96 11.3 25.7 0.00 0.00 0.00 42 1010.4
20260505101118 17 180 8.0 20.9 0.00 0.00 0.00 43 1010.5
20260505100038 18 96 9.7 25.7 0.00 0.00 0.00 41 1010.5
20260505095103 18 119 6.4 25.7 0.00 0.00 0.00 43 1010.6
20260505094023 18 137 11.3 30.6 0.00 0.00 0.00 42 1010.7
20260505093047 17 347 4.8 14.5 0.00 0.00 0.00 45 1011.0
20260505092111 17 36 3.2 11.3 0.00 0.00 0.00 47 1011.2
20260505091032 15 109 3.2 11.3 0.00 0.00 0.00 53 1011.4
20260505090057 15 44 0.0 3.2 0.00 0.00 0.00 60 1011.5
20260505085019 14 0.0 3.2 0.00 0.00 0.00 64 1011.6
20260505084122 13 83 0.0 1.6 0.00 0.00 0.00 70 1011.6
20260505083106 13 92 0.0 3.2 0.00 0.00 0.00 75 1011.9
20260505082106 13 98 1.6 6.4 0.00 0.00 0.00 75 1011.9
20260505081050 12 0.0 1.6 0.00 0.00 0.00 76 1012.2
20260505080155 12 0.0 1.6 0.00 0.00 0.00 79 1012.2
20260505075035 11 0.0 0.0 0.00 0.00 0.00 81 1012.3
20260505074100 11 0.0 0.0 0.00 0.00 0.00 83 1012.6
20260505073020 11 0.0 0.0 0.00 0.00 0.00 84 1012.8
20260505072045 11 278 0.0 3.2 0.00 0.00 0.00 82 1012.8
20260505071109 11 346 0.0 1.6 0.00 0.00 0.00 82 1012.8
20260505070029 11 338 0.0 1.6 0.00 0.00 0.00 81 1012.9
20260505065135 11 0.0 1.6 0.00 0.00 0.00 83 1012.9
20260505064120 11 317 0.0 1.6 0.00 0.00 0.00 82 1012.9
20260505063119 11 310 1.6 4.8 0.00 0.00 0.00 81 1012.9
20260505062103 11 309 1.6 3.2 0.00 0.00 0.00 81 1012.9
20260505061104 11 3 0.0 1.6 0.00 0.00 0.00 80 1013.0
20260505060128 11 294 0.0 1.6 0.00 0.00 0.00 79 1012.8
20260505055112 11 350 0.0 1.6 0.00 0.00 0.00 78 1012.7
20260505054033 11 7 0.0 3.2 0.00 0.00 0.00 77 1012.4
20260505053057 11 347 0.0 3.2 0.00 0.00 0.00 76 1012.3
20260505052058 11 337 1.6 4.8 0.00 0.00 0.00 75 1012.2
20260505051042 11 275 1.6 6.4 0.00 0.00 0.00 74 1012.2
20260505050106 11 339 1.6 4.8 0.00 0.00 0.00 72 1012.0
20260505041101 15 50 3.2 12.9 0.00 0.00 0.00 41 1011.2
20260505035047 15 44 4.8 12.9 0.00 0.00 0.00 39 1011.2
20260505034111 15 352 3.2 11.3 0.00 0.00 0.00 39 1011.3
20260505033030 15 46 4.8 20.9 0.00 0.00 0.00 39 1011.4
20260505032055 15 1 3.2 9.7 0.00 0.00 0.00 38 1011.6
20260505031119 16 25 4.8 16.1 0.00 0.00 0.00 37 1011.7
20260505030040 15 71 4.8 14.5 0.00 0.00 0.00 37 1011.7
20260505025104 16 359 1.6 12.9 0.00 0.00 0.00 37 1012.0
20260505024024 16 36 4.8 12.9 0.00 0.00 0.00 36 1012.0
20260505023129 16 110 6.4 22.5 0.00 0.00 0.00 36 1012.1
20260505022113 15 63 4.8 14.5 0.00 0.00 0.00 36 1012.4
20260505021034 15 333 3.2 16.1 0.00 0.00 0.00 36 1012.5
20260505020058 15 28 4.8 16.1 0.00 0.00 0.00 37 1012.4
20260505015058 15 55 6.4 17.7 0.00 0.00 0.00 36 1012.7
20260505014043 15 25 3.2 12.9 0.00 0.00 0.00 36 1012.8
20260505013107 15 3 3.2 11.3 0.00 0.00 0.00 35 1013.0
20260505012028 15 8 4.8 14.5 0.00 0.00 0.00 35 1013.1
20260505011052 15 39 4.8 16.1 0.00 0.00 0.00 35 1013.0
20260505010116 15 31 4.8 11.3 0.00 0.00 0.00 35 1013.2
20260505005037 15 298 3.2 14.5 0.00 0.00 0.00 35 1013.6
20260505004102 15 1 1.6 12.9 0.00 0.00 0.00 35 1013.9
20260505003022 16 22 3.2 14.5 0.00 0.00 0.00 36 1013.9
20260505002046 16 36 3.2 14.5 0.00 0.00 0.00 36 1013.9
20260505001111 16 79 6.4 16.1 0.00 0.00 0.00 36 1014.2
20260505000031 16 358 4.8 14.5 0.00 0.00 0.00 35 1014.5
20260504235057 15 53 3.2 12.9 0.00 0.00 0.00 37 1014.7
20260504234120 15 10 1.6 4.8 0.00 0.00 0.00 37 1014.9
20260504233041 15 62 1.6 12.9 0.00 0.00 0.00 37 1014.9
20260504232105 15 7 1.6 9.7 0.00 0.00 0.00 37 1015.1
20260504231025 15 354 1.6 16.1 0.00 0.00 0.00 38 1015.2
20260504230050 15 12 3.2 11.3 0.00 0.00 0.00 38 1015.2
20260504225154 15 359 3.2 9.7 0.00 0.00 0.00 39 1015.4
20260504224034 15 41 1.6 4.8 0.00 0.00 0.00 39 1015.3
20260504223139 15 10 1.6 9.7 0.00 0.00 0.00 39 1015.3
20260504222019 15 19 3.2 11.3 0.00 0.00 0.00 39 1015.4
20260504221043 15 59 3.2 12.9 0.00 0.00 0.00 39 1015.4
20260504220108 15 45 1.6 4.8 0.00 0.00 0.00 40 1015.4
20260504215029 15 7 1.6 6.4 0.00 0.00 0.00 40 1015.5
20260504214053 15 89 3.2 9.7 0.00 0.00 0.00 39 1015.5
20260504213117 15 64 4.8 12.9 0.00 0.00 0.00 38 1015.6
20260504212117 16 117 4.8 17.7 0.00 0.00 0.00 37 1015.7
20260504211102 16 140 4.8 20.9 0.00 0.00 0.00 37 1015.8
20260504210022 16 118 4.8 16.1 0.00 0.00 0.00 38 1015.8
20260504205127 16 129 6.4 17.7 0.00 0.00 0.00 38 1015.7
20260504204111 16 94 4.8 9.7 0.00 0.00 0.00 38 1015.9
20260504203032 16 119 3.2 12.9 0.00 0.00 0.00 38 1016.0
20260504202056 16 80 4.8 9.7 0.00 0.00 0.00 37 1016.1
20260504201027 16 99 1.6 4.8 0.00 0.00 0.00 38 1015.9
20260504200041 16 96 3.2 9.7 0.00 0.00 0.00 38 1015.8
20260504195105 16 95 3.2 11.3 0.00 0.00 0.00 38 1015.7
20260504194106 16 62 1.6 6.4 0.00 0.00 0.00 38 1015.6
20260504193050 17 144 3.2 12.9 0.00 0.00 0.00 37 1015.5
20260504192155 17 70 1.6 9.7 0.00 0.00 0.00 37 1015.5
20260504191035 17 87 3.2 11.3 0.00 0.00 0.00 36 1015.4
20260504190059 17 88 1.6 11.3 0.00 0.00 0.00 37 1015.5
20260504185020 17 46 0.0 6.4 0.00 0.00 0.00 38 1015.5
20260504184044 17 90 1.6 6.4 0.00 0.00 0.00 38 1015.5
20260504183109 17 84 1.6 9.7 0.00 0.00 0.00 38 1015.6
20260504182028 17 134 4.8 12.9 0.00 0.00 0.00 38 1015.6
20260504181054 17 49 1.6 9.7 0.00 0.00 0.00 38 1015.6